DW8266 Weather Reports


time (UTC)temp
C
wind
direction
speed
KPH
gust
KPH
rain 1hr
cm
rain 24hr
cm
rain mn
cm
humidity
%
barometer
mb
20260506184600 30 157 0.0 9.7 0.00 0.00 0.00 85 1009.4
20260506183108 30 160 1.6 8.0 0.00 0.00 0.00 86 1009.6
20260506183002 30 160 1.6 8.0 0.00 0.00 0.00 86 1009.6
20260506181600 29 146 0.0 8.0 0.00 0.00 0.00 85 1009.9
20260506180006 28 154 1.6 4.8 0.00 0.00 0.00 87 1010.1
20260506174608 28 161 0.0 8.0 0.00 0.00 0.00 88 1010.4
20260506171600 27 160 1.6 6.4 0.00 0.00 0.00 88 1010.8
20260506170100 27 153 0.0 8.0 0.00 0.00 0.00 88 1010.9
20260506170002 27 153 1.6 8.0 0.00 0.00 0.00 89 1010.9
20260506164601 27 150 1.6 8.0 0.00 0.00 0.00 90 1011.0
20260506163103 26 169 1.6 9.7 0.00 0.00 0.00 91 1010.8
20260506161611 26 154 0.0 8.0 0.00 0.00 0.00 90 1010.4
20260506160001 26 150 1.6 4.8 0.00 0.00 0.00 90 1010.4
20260506154602 26 92 1.6 4.8 0.00 0.00 0.00 91 1010.3
20260506153059 26 155 0.0 4.8 0.00 0.00 0.00 90 1010.4
20260506151600 26 154 0.0 4.8 0.00 0.00 0.00 91 1009.9
20260506150104 26 150 0.0 8.0 0.00 0.00 0.00 92 1009.8
20260506150002 26 150 0.0 8.0 0.00 0.00 0.00 92 1009.8
20260506144612 26 121 0.0 3.2 0.00 0.00 0.00 92 1009.7
20260506143059 26 153 1.6 6.4 0.00 0.00 0.00 93 1009.3
20260506141601 25 169 0.0 8.0 0.00 0.00 0.00 93 1009.4
20260506140122 25 63 0.0 4.8 0.00 0.00 0.00 94 1009.4
20260506140003 25 137 0.0 3.2 0.00 0.00 0.00 94 1009.4
20260506134600 25 129 0.0 3.2 0.00 0.00 0.00 94 1009.6
20260506133135 25 152 0.0 3.2 0.00 0.00 0.00 94 1009.6
20260506131600 25 151 0.0 3.2 0.00 0.00 0.00 94 1009.7
20260506130139 24 154 0.0 1.6 0.00 0.00 0.00 94 1009.7
20260506130003 24 154 0.0 1.6 0.00 0.00 0.00 94 1009.7
20260506124600 24 154 0.0 1.6 0.00 0.00 0.00 94 1009.7
20260506123101 24 154 0.0 3.2 0.00 0.00 0.00 94 1009.7
20260506121602 24 154 0.0 3.2 0.00 0.00 0.00 94 1009.4
20260506120105 24 154 0.0 1.6 0.00 0.00 0.00 94 1009.2
20260506120002 24 154 0.0 1.6 0.00 0.00 0.00 94 1009.2
20260506114606 24 154 0.0 3.2 0.00 0.00 0.00 94 1009.2
20260506113100 24 154 0.0 3.2 0.00 0.00 0.00 94 1009.0
20260506111600 24 144 0.0 4.8 0.00 0.00 0.00 94 1008.8
20260506110002 24 153 1.6 9.7 0.00 0.00 0.00 94 1008.7
20260506104606 24 175 0.0 3.2 0.00 0.00 0.00 94 1008.6
20260506103107 24 175 0.0 1.6 0.00 0.00 0.00 93 1008.6
20260506101559 24 175 0.0 3.2 0.00 0.00 0.00 93 1008.7
20260506100109 24 175 0.0 4.8 0.00 0.00 0.00 93 1008.5
20260506100002 24 175 0.0 6.4 0.00 0.00 0.00 93 1008.5
20260506094605 24 196 0.0 4.8 0.00 0.00 0.00 93 1008.4
20260506093059 24 119 1.6 8.0 0.00 0.00 0.00 93 1008.3
20260506091557 24 153 1.6 6.4 0.00 0.00 0.00 93 1008.5
20260506090056 25 166 3.2 9.7 0.00 0.00 0.00 93 1008.6
20260506084600 25 168 3.2 8.0 0.00 0.00 0.00 93 1008.6
20260506083100 25 168 1.6 8.0 0.00 0.00 0.00 93 1008.8
20260506081609 25 139 1.6 8.0 0.00 0.00 0.00 93 1008.8
20260506073059 25 117 1.6 8.0 0.00 0.00 0.00 93 1009.1
20260506071559 25 167 1.6 8.0 0.00 0.00 0.00 93 1009.1
20260506061559 25 165 0.0 9.7 0.00 0.00 0.00 93 1009.4
20260506044559 25 157 0.0 8.0 0.00 0.00 0.00 92 1009.4
20260506043110 25 157 0.0 6.4 0.00 0.00 0.00 92 1009.5
20260506041559 25 164 0.0 6.4 0.00 0.00 0.00 91 1009.1
20260506040059 25 171 1.6 6.4 0.00 0.00 0.00 91 1009.3
20260506034615 25 192 1.6 11.3 0.00 0.00 0.00 91 1009.1
20260506033058 25 138 1.6 8.0 0.00 0.00 0.00 90 1008.8
20260506031606 25 158 3.2 8.0 0.00 0.00 0.00 90 1008.8
20260506030059 25 155 1.6 8.0 0.00 0.00 0.00 90 1008.8
20260506030003 25 146 3.2 8.0 0.00 0.00 0.00 90 1008.8
20260506024558 26 161 4.8 11.3 0.00 0.00 0.00 90 1008.5
20260506023105 26 166 3.2 11.3 0.00 0.00 0.00 90 1008.5
20260506021601 26 163 1.6 9.7 0.00 0.00 0.00 89 1008.2
20260506020059 26 163 4.8 14.5 0.00 0.00 0.00 89 1008.0
20260506014559 26 137 4.8 11.3 0.00 0.00 0.00 89 1007.8
20260506013110 26 139 1.6 8.0 0.00 0.00 0.00 88 1007.5
20260506011601 26 167 1.6 9.7 0.00 0.00 0.00 87 1007.2
20260506010120 26 175 4.8 12.9 0.00 0.00 0.00 87 1007.1
20260506004557 26 105 3.2 11.3 0.00 0.00 0.00 86 1007.1
20260506003117 26 192 4.8 11.3 0.00 0.00 0.00 86 1006.7
20260506000058 27 156 4.8 14.5 0.00 0.00 0.00 85 1007.0
20260505234558 27 167 3.2 16.1 0.00 0.00 0.00 85 1006.7
20260505233111 27 167 4.8 12.9 0.00 0.00 0.00 85 1006.8
20260505231559 27 205 6.4 19.3 0.00 0.00 0.00 84 1006.8
20260505230100 27 175 4.8 16.1 0.00 0.00 0.00 84 1006.8
20260505230002 27 118 4.8 16.1 0.00 0.00 0.00 84 1006.8
20260505224557 27 171 4.8 12.9 0.00 0.00 0.00 84 1006.8
20260505223059 27 155 6.4 11.3 0.00 0.00 0.00 84 1006.9
20260505221600 28 211 6.4 14.5 0.00 0.00 0.00 83 1006.8
20260505220100 28 205 6.4 12.9 0.00 0.00 0.00 83 1006.9
20260505214628 28 137 4.8 16.1 0.00 0.00 0.00 83 1007.2
20260505213109 28 177 8.0 19.3 0.00 0.00 0.00 82 1007.3
20260505211559 28 135 6.4 16.1 0.00 0.00 0.00 81 1007.7
20260505210059 28 211 9.7 20.9 0.00 0.00 0.00 82 1007.8
20260505210002 28 214 6.4 17.7 0.00 0.00 0.00 83 1007.8
20260505204600 28 184 6.4 17.7 0.00 0.00 0.00 83 1008.1
20260505203100 28 188 6.4 20.9 0.00 0.00 0.00 82 1008.2
20260505200100 28 209 8.0 19.3 0.00 0.00 0.00 83 1008.4
20260505200003 28 205 6.4 14.5 0.00 0.00 0.00 83 1008.5
20260505194559 28 180 6.4 16.1 0.00 0.00 0.00 83 1008.7
20260505193059 27 216 8.0 22.5 0.00 0.00 0.00 85 1008.8
20260505191608 27 170 6.4 16.1 0.00 0.00 0.00 85 1009.0
20260505190105 27 211 8.0 16.1 0.00 0.00 0.00 85 1008.8